Temp
12 12 11 12 11 11 11 11 12 12 13 13 13 13 13 15 16 16 16 16 16 16
12 12 11 11 12 11 11 12 12 12 13 13 13 14 14 14 15 15 15 15 15 15
12 12 12 11 12 11 12 12 12 12 13 13 14 14 14 14 15 15 15 15 15 15
12 12 12 12 12 12 12 12 12 12 13 13 13 13 13 14 14 14 14 14 14 15
12 12 11 11 12 11 12 12 12 12 12 12 13 13 13 13 13 13 13 13 14 14
13 12 12 11 12 12 11 11 12 12 12 12 12 12 13 12 13 13 13 13 13 13
13 13 13 12 12 12 11 11 11 11 12 12 12 12 12 12 12 12 12 13 13 13
13 13 13 13 13 12 11 11 11 11 11 11 11 12 12 12 12 12 12 12 12 13
13 13 13 13 13 13 12 12 11 11 11 11 11 11 12 12 12 12 12 12 12 12
13 13 13 13 13 13 12 13 12 12 11 11 11 12 12 12 12 12 12 12 12 12
14 14 13 13 13 13 13 13 13 13 12 12 12 12 12 12 13 12 12 12 12 12
8 9 12 14 13 13 13 13 13 13 13 13 13 13 13 13 13 12 12 12 12 12
5 6 7 8 10 14 14 13 13 13 13 13 13 13 13 13 12 12 11 12 12 12
2 3 4 6 7 8 10 13 13 13 12 11 9 11 10 12 13 11 11 10 8 7
Height
735 740 743 747 751 755 758 763 768 772 777 782 786 790 793 796 798 803 806 809 812 814
731 736 740 744 748 752 757 760 764 769 774 779 783 787 790 793 796 800 803 805 808 809
727 732 736 740 743 747 752 756 760 765 770 774 779 783 786 790 793 797 799 802 804 805
723 728 732 734 738 742 747 751 755 760 765 769 773 776 780 783 787 790 793 796 798 799
718 723 727 730 734 738 742 746 751 754 759 763 767 771 774 777 780 782 785 787 791 792
711 715 720 725 729 733 737 741 745 749 751 755 759 763 766 769 772 774 776 779 780 782
705 709 713 719 722 725 729 733 737 741 745 748 752 754 757 760 763 765 768 770 771 774
699 702 706 709 714 719 723 725 730 734 738 741 743 745 748 752 754 757 760 762 762 764
696 698 700 703 705 709 713 717 721 723 726 730 731 733 737 741 744 747 749 749 751 753
698 701 703 706 705 703 705 709 709 712 716 717 719 722 726 731 736 738 738 738 739 742
693 693 694 697 697 698 699 701 702 702 704 707 707 710 713 719 724 725 725 726 728 729
694 690 690 688 687 689 692 693 693 696 698 698 699 702 706 709 712 713 713 714 715 715
696 693 689 685 683 683 683 681 685 688 690 690 691 693 695 697 698 698 700 701 700 701
696 693 690 686 682 678 677 677 678 681 682 683 683 683 684 686 685 685 686 687 689 692
Wind_Speed
28 30 30 32 30 29 29 27 33 37 34 31 34 36 36 37 36 33 32 32 34 31
30 29 30 32 31 33 29 28 35 33 35 35 31 34 39 35 34 33 35 36 30 30
29 33 30 30 35 33 34 34 34 37 37 35 37 36 34 35 34 36 37 37 34 30
30 31 33 33 35 37 37 37 36 39 39 38 37 40 39 38 37 38 39 38 40 38
30 31 31 34 36 35 38 39 40 39 40 41 40 40 39 39 34 40 39 40 41 41
31 32 31 32 35 36 37 37 39 39 42 41 40 40 41 39 40 38 40 39 39 42
34 31 33 32 36 38 39 39 39 39 38 41 40 41 42 42 41 39 39 40 41 40
34 36 34 33 34 35 37 38 37 37 39 39 40 42 42 41 40 40 39 40 44 46
31 32 35 35 34 36 36 35 36 39 40 40 41 44 46 44 41 41 41 42 42 43
23 25 28 27 31 34 36 36 37 38 38 40 44 44 45 47 47 39 41 42 42 41
9 22 29 30 35 37 34 37 37 39 40 39 42 44 48 48 48 47 46 44 42 41
15 13 11 25 31 33 32 34 37 37 36 38 40 41 44 46 49 44 45 45 44 43
15 13 12 10 11 26 30 34 32 33 34 38 39 38 43 46 45 41 42 43 46 49
18 14 15 11 10 11 10 24 27 28 24 19 17 25 27 39 48 39 35 34 36 30
Wind_Direction
195 197 196 192 189 191 189 191 191 193 197 199 201 203 205 208 208 212 212 212 213 212
195 203 198 200 199 198 195 197 198 201 204 209 206 211 213 217 217 217 222 223 223 218
194 204 204 201 205 201 200 203 208 209 208 214 220 221 218 221 225 226 228 230 228 227
195 199 210 210 211 209 207 207 207 208 211 216 219 222 221 222 224 226 228 227 226 225
198 200 205 210 215 212 211 211 209 211 212 213 219 220 222 223 222 227 228 229 230 231
197 201 204 207 213 215 216 214 214 215 217 217 219 222 226 226 229 227 231 230 231 233
203 201 204 208 213 215 216 216 217 218 221 223 223 224 225 229 231 232 232 232 232 233
208 209 207 207 212 215 216 217 217 218 221 225 224 224 224 226 229 231 232 232 235 236
212 212 213 212 211 212 215 215 215 217 219 221 225 229 230 228 228 230 232 235 237 240
226 227 229 227 219 218 217 217 216 217 218 222 227 229 230 231 231 233 234 235 237 240
278 231 225 222 224 228 223 223 224 223 223 226 231 231 232 234 233 232 236 237 238 238
352 329 295 235 229 229 224 226 227 229 229 228 236 236 236 238 233 234 237 238 239 239
2 1 341 338 304 252 231 229 228 231 231 233 238 240 239 236 228 231 234 239 239 240
9 6 7 2 351 335 294 244 228 225 224 230 242 237 244 240 232 230 232 232 234 237